Weather History for KBHK - October, 2013

Change the Weather History Date:

Monday, October 28, 2013

  Actual Average Record
Temperature  
Mean Temperature 26 °F -  
Max Temperature 30 °F 52 °F 68 °F (2007)
Min Temperature 23 °F 46 °F 12 °F (2010)
Degree Days  
Heating Degree Days 38    
Moisture  
Dew Point 21 °F    
Average Humidity 84    
Maximum Humidity 88    
Minimum Humidity 77    
Precipitation  
Precipitation 0.12 in - - ()
Sea Level Pressure  
Sea Level Pressure 30.34 in    
Wind  
Wind Speed 18 mph (East)    
Max Wind Speed 23 mph    
Max Gust Speed 30 mph    
Visibility 4 miles    
Events Fog , Snow    
Averages and records for this station are not official NWS values.
T = Trace of Precipitation, MM = Missing Value Source: NWS Daily Summary

Daily Weather History Graph

Daily Weather History Graph

Search for Another Location

Airport or City:

Trip Planner

Search our weather history database for the weather conditions in past years. The results will help you decide how hot, cold, wet, or windy it might be!

Date:

Astronomy

Oct. 28, 2013 Rise Set
Actual Time 7:32 AM MDT 5:47 PM MDT
Civil Twilight 7:01 AM MDT 6:19 PM MDT
Nautical Twilight 6:26 AM MDT 6:54 PM MDT
Astronomical Twilight 5:51 AM MDT 7:29 PM MDT
Moon 1:08 AM MDT (10/28) 2:49 PM MDT (10/28)
Length of Visible Light 11h 17m
Length of Day
10h 14m
Waning Crescent, 33% of the Moon is Illuminated
Oct 28
Waning Crescent
Nov 3
New
Nov 9
First Quarter
Nov 17
Full
Nov 25
Last Quarter

Hourly Weather History & Observations

Time (MDT) Temp. Windchill Dew Point Humidity Pressure Visibility Wind Dir Wind Speed Gust Speed Precip Events Conditions
12:51 AM 30.0 °F 17.2 °F 25.0 °F 82% 30.30 in 10.0 mi East 20.7 mph 25.3 mph N/A   Overcast
1:51 AM 28.9 °F 15.8 °F 24.1 °F 82% 30.33 in 9.0 mi East 20.7 mph 29.9 mph N/A   Overcast
3:23 AM 26.1 °F 11.3 °F 21.0 °F 81% 30.31 in 10.0 mi East 23.0 mph 29.9 mph N/A   Overcast
3:49 AM 26.6 °F 12.4 °F 21.2 °F 80% 30.29 in 10.0 mi East 21.9 mph - N/A   Overcast
3:51 AM 26.1 °F 13.1 °F 21.0 °F 81% 30.35 in 10.0 mi East 17.3 mph - N/A   Overcast
4:06 AM 26.1 °F 12.3 °F 21.0 °F 81% 30.30 in 10.0 mi East 19.6 mph - N/A   Overcast
4:51 AM 25.0 °F 11.7 °F 19.9 °F 81% 30.39 in 10.0 mi East 17.3 mph - N/A   Overcast
5:51 AM 24.1 °F 10.1 °F 19.0 °F 81% 30.42 in 10.0 mi East 18.4 mph - N/A   Overcast
6:51 AM 23.0 °F 10.6 °F 18.0 °F 81% 30.43 in 10.0 mi East 13.8 mph - N/A   Overcast
7:51 AM 23.0 °F 10.1 °F 18.0 °F 81% 30.44 in 10.0 mi East 15.0 mph - N/A   Overcast
8:02 AM 23.0 °F 10.1 °F 18.0 °F 81% 30.35 in 10.0 mi East 15.0 mph - N/A   Overcast
8:22 AM 23.0 °F 9.2 °F 18.0 °F 81% 30.35 in 10.0 mi East 17.3 mph - N/A   Overcast
8:51 AM 23.0 °F 9.6 °F 18.0 °F 81% 30.46 in 10.0 mi East 16.1 mph - N/A   Overcast
9:44 AM 23.0 °F 9.2 °F 18.0 °F 81% 30.36 in 10.0 mi East 17.3 mph - N/A   Overcast
9:51 AM 23.0 °F 10.1 °F 18.0 °F 81% 30.46 in 10.0 mi East 15.0 mph - N/A   Overcast
10:06 AM 24.1 °F 10.1 °F 18.0 °F 77% 30.36 in 10.0 mi East 18.4 mph - N/A   Overcast
10:51 AM 24.1 °F 11.0 °F 19.0 °F 81% 30.45 in 10.0 mi East 16.1 mph - N/A   Overcast
11:51 AM 25.0 °F 11.3 °F 19.0 °F 78% 30.44 in 10.0 mi East 18.4 mph - 0.00 in Snow Light Snow
12:51 PM 25.0 °F 10.6 °F 19.9 °F 81% 30.43 in 10.0 mi East 20.7 mph 26.5 mph 0.00 in   Overcast
1:18 PM 25.0 °F 9.9 °F 19.9 °F 81% 30.32 in 1.5 mi East 23.0 mph 28.8 mph 0.00 in Snow Light Snow
1:27 PM 26.1 °F 12.0 °F 21.0 °F 81% 30.32 in 0.8 mi East 20.7 mph 25.3 mph 0.00 in Snow Light Snow
1:39 PM 26.1 °F 12.7 °F 21.0 °F 81% 30.32 in 1.5 mi East 18.4 mph 27.6 mph 0.00 in Snow Light Snow
1:51 PM 26.1 °F 13.1 °F 21.0 °F 81% 30.42 in 1.8 mi East 17.3 mph - 0.00 in Snow Light Snow
2:46 PM 26.1 °F 13.6 °F 21.9 °F 84% 30.31 in 0.8 mi East 16.1 mph - 0.01 in Snow Light Snow
2:51 PM 26.1 °F 13.1 °F 21.0 °F 81% 30.41 in 0.8 mi East 17.3 mph - 0.01 in Snow Light Snow
3:04 PM 26.1 °F 13.1 °F 21.9 °F 84% 30.31 in 1.0 mi East 17.3 mph - 0.00 in Snow Light Snow
3:44 PM 26.1 °F 12.3 °F 21.0 °F 81% 30.30 in 0.8 mi East 19.6 mph - 0.01 in Snow Light Snow
3:51 PM 26.1 °F 12.3 °F 21.9 °F 84% 30.40 in 0.5 mi East 19.6 mph - 0.01 in Fog , Snow Snow
4:03 PM 26.1 °F 12.3 °F 21.9 °F 84% 30.29 in 0.8 mi East 19.6 mph - 0.00 in Snow Light Snow
4:07 PM 26.1 °F 13.6 °F 21.9 °F 84% 30.29 in 0.8 mi East 16.1 mph 27.6 mph 0.01 in Snow Light Snow
4:12 PM 26.1 °F 13.6 °F 21.9 °F 84% 30.29 in 1.2 mi East 16.1 mph 23.0 mph 0.01 in Snow Light Snow
4:31 PM 26.1 °F 12.7 °F 21.9 °F 84% 30.29 in 0.8 mi East 18.4 mph - 0.01 in Snow Light Snow
4:38 PM 26.1 °F 13.6 °F 21.0 °F 81% 30.29 in 1.0 mi East 16.1 mph - 0.01 in Snow Light Snow
4:51 PM 26.1 °F 14.5 °F 21.9 °F 84% 30.40 in 0.5 mi East 13.8 mph - 0.01 in Fog , Snow Snow
4:56 PM 26.1 °F 15.0 °F 21.9 °F 84% 30.29 in 0.5 mi East 12.7 mph - 0.01 in Fog , Snow Snow
5:34 PM 25.0 °F 12.2 °F 21.9 °F 88% 30.28 in 1.0 mi ESE 16.1 mph - 0.02 in Snow Light Snow
5:51 PM 25.0 °F 12.6 °F 21.0 °F 85% 30.40 in 0.8 mi East 15.0 mph - 0.02 in Snow Light Snow
6:00 PM 25.0 °F 12.2 °F 21.0 °F 85% 30.28 in 1.2 mi East 16.1 mph - 0.01 in Snow Light Snow
6:12 PM 25.0 °F 12.6 °F 21.0 °F 85% 30.29 in 2.0 mi ESE 15.0 mph - 0.01 in Snow Light Snow
6:29 PM 25.0 °F 12.6 °F 21.0 °F 85% 30.29 in 1.8 mi ESE 15.0 mph - 0.01 in Snow Light Snow
6:51 PM 25.0 °F 12.6 °F 21.9 °F 88% 30.41 in 1.0 mi ESE 15.0 mph - 0.02 in Snow Light Snow
7:51 PM 25.0 °F 13.1 °F 21.9 °F 88% 30.39 in 1.0 mi East 13.8 mph - 0.02 in Snow Light Snow
7:58 PM 25.0 °F 13.1 °F 21.9 °F 88% 30.28 in 0.8 mi ESE 13.8 mph - 0.00 in Snow Light Snow
8:07 PM 25.0 °F 12.2 °F 21.9 °F 88% 30.27 in 1.2 mi ESE 16.1 mph - 0.00 in Snow Light Snow
8:26 PM 25.0 °F 11.7 °F 21.9 °F 88% 30.26 in 1.2 mi East 17.3 mph - 0.01 in Snow Light Snow
8:51 PM 25.0 °F 13.1 °F 21.9 °F 88% 30.38 in 1.5 mi ESE 13.8 mph - 0.01 in Snow Light Snow
9:00 PM 25.0 °F 14.2 °F 21.9 °F 88% 30.26 in 2.5 mi East 11.5 mph - 0.00 in Snow Light Snow
9:07 PM 25.0 °F 13.1 °F 21.9 °F 88% 30.26 in 2.5 mi East 13.8 mph - 0.00 in Snow Light Snow
9:13 PM 25.0 °F 12.6 °F 21.9 °F 88% 30.26 in 3.0 mi East 15.0 mph - 0.00 in Snow Light Snow
9:37 PM 25.0 °F 12.2 °F 21.0 °F 85% 30.26 in 3.0 mi East 16.1 mph - 0.00 in Snow Light Snow
9:51 PM 25.0 °F 13.1 °F 21.0 °F 85% 30.39 in 3.0 mi ESE 13.8 mph - 0.01 in Snow Light Snow
9:57 PM 25.0 °F 12.6 °F 21.0 °F 85% 30.27 in 2.5 mi ESE 15.0 mph - 0.00 in Snow Light Snow
10:06 PM 25.0 °F 12.6 °F 21.0 °F 85% 30.27 in 3.0 mi ESE 15.0 mph - 0.00 in Snow Light Snow
10:40 PM 24.1 °F 12.0 °F 21.0 °F 88% 30.28 in 2.5 mi ESE 13.8 mph - 0.00 in Snow Light Snow
10:49 PM 24.8 °F 13.4 °F 21.2 °F 86% 30.27 in 1.5 mi ESE 12.7 mph - 0.00 in Snow Light Snow
10:51 PM 24.1 °F 12.0 °F 21.0 °F 88% 30.38 in 1.8 mi ESE 13.8 mph - 0.00 in Snow Light Snow
10:58 PM 24.1 °F 12.5 °F 21.0 °F 88% 30.27 in 3.0 mi ESE 12.7 mph - 0.01 in Snow Light Snow
11:43 PM 24.1 °F 12.5 °F 21.0 °F 88% 30.26 in 9.0 mi ESE 12.7 mph - 0.01 in   Overcast
11:51 PM 24.1 °F 12.5 °F 21.0 °F 88% 30.37 in 10.0 mi ESE 12.7 mph - 0.01 in   Overcast